Location: Gro�bocka
(50.8204°N, 11.9702°E)
Time: 05:03:29
(UTC+00:00)

X-37B - Pass Details

Date: 23 June 2021
Orbit: 383 x 392 km, 45.0° (Epoch: 01 July)

Event Time Altitude Azimuth Distance (km) Brightness Sun altitude
Rises 22:06:56 0° 246° (WSW) 2,253 4.4 -14.3°
Reaches altitude 10° 22:09:10 10° 233° (SW) 1,401 3.2 -14.4°
Enters shadow 22:10:00 15° 223° (SW) 1,125 2.6 -14.4°
